STARLINK-31697 (59583 NORAD) Tracking and Keplerian Element Data

This shows tracking and keplerian element data for the satellite.

Feedback or suggestion? Click here.




ElementValue
Catalog59583
NameSTARLINK-31697
Epoch Orbit816
Epoch Day159.76571818
Epoch Year2024
RAAN55.93
Inclination42.9994
Eccentricity0.0001125
Argument of Perigee292.0256
Mean Anonmoly68.0481
Mean Motion15.40724677
Decay Rate0.00010109
L11 59583U 24076V 24159.76571818 .00010109 00000+0 24874-3 0 9991
L22 59583 42.9994 55.9300 0001125 292.0256 68.0481 15.40724677 8161



Live tracking and technical data element details for STARLINK-31697 (NORAD 59583). STARLINK-31697 can be tracked NOW for your location showing map with azimuth and elevation plus other details from your city location.







IsCatalogInMostPopularTable: catalog: 59583, numindb: 11
Update: records affected: 1



GetName: 59583 STARLINK-31697

Hit Count: updated at: Fri, 14 Jun 2024 19:55:37 GMT